Theta_e
327 330 330 331 332 332 333 333 332 336 332 327 325 324 323 326 326 328 334 336 335 336 341 338 345 343 337 338 342 342 338 337 339 337 333 335 342 343 342 344 345 344 344
326 328 330 330 331 330 331 332 332 334 332 328 329 328 327 324 326 327 336 340 336 339 338 341 338 341 341 337 334 334 336 338 343 332 333 327 329 337 341 342 340 338 340
325 328 328 330 331 330 331 329 330 332 332 333 330 329 329 325 322 324 325 332 332 335 339 339 338 341 341 339 336 336 331 328 335 337 331 326 321 331 340 341 341 343 341
326 327 326 326 325 324 330 328 330 330 330 333 332 334 323 321 323 323 325 330 333 331 332 336 337 338 342 337 337 338 334 332 327 329 333 337 333 326 320 328 332 335 333
325 324 324 323 323 323 324 330 331 330 330 331 332 326 327 323 322 322 328 331 331 333 330 329 331 334 331 335 335 335 334 335 332 330 331 329 329 329 324 321 326 328 332
324 324 324 322 321 321 322 326 326 329 331 329 329 330 326 325 321 323 321 320 321 322 323 322 325 328 331 332 334 335 334 333 332 329 328 326 326 323 323 321 323 320 322
322 320 318 320 319 318 319 320 325 325 330 328 327 325 325 326 322 319 316 315 314 315 314 317 318 325 330 332 332 332 331 332 327 325 324 326 327 328 325 323 322 314 316
320 318 319 319 318 318 319 320 322 323 324 323 323 324 323 317 316 315 313 309 308 309 311 311 315 321 325 329 329 331 327 324 319 315 315 315 314 318 322 321 318 309 312
319 318 319 318 317 318 319 321 322 323 320 321 322 322 318 316 315 314 312 311 307 307 308 309 311 314 317 320 322 317 315 309 307 306 306 307 309 312 316 319 320 317 310
317 317 318 318 318 318 321 323 322 317 320 320 320 317 317 315 314 312 311 310 307 305 306 307 309 312 313 313 314 311 309 307 305 304 303 303 305 304 310 310 316 311 316
316 316 316 317 318 320 320 321 317 319 319 318 318 317 316 315 311 312 310 311 311 306 305 305 306 310 310 309 308 308 307 306 305 305 304 302 304 302 304 305 307 305 307
315 315 315 317 317 317 314 317 320 318 317 315 316 316 312 309 306 309 310 309 308 309 308 305 304 305 306 304 303 303 302 302 304 304 306 307 307 304 303 302 302 301 304
314 314 316 316 314 316 315 317 317 316 313 316 314 311 307 305 307 309 309 309 307 305 304 305 303 302 302 303 301 300 300 300 301 303 302 302 304 303 305 304 304 303 303
313 315 315 314 315 316 315 316 314 312 312 312 313 311 310 309 309 309 308 306 305 304 303 304 303 302 301 300 299 298 298 298 298 301 304 302 301 300 301 301 303 304 303
313 313 312 312 314 315 316 316 311 310 314 312 311 310 310 310 308 308 306 305 304 303 302 302 301 302 301 299 300 301 302 304 305 304 303 303 303 303 303 303 304 304 305
312 311 313 312 313 315 315 312 307 308 312 311 309 308 304 306 307 305 304 304 303 303 304 304 301 300 298 299 299 302 303 303 303 302 302 303 304 302 301 302 302 303 303
309 309 311 313 314 316 315 309 306 312 311 309 305 303 303 307 305 306 305 305 303 305 304 303 302 301 299 299 299 300 302 302 302 304 304 303 303 303 305 301 301 303 302
310 311 312 311 315 316 312 307 312 311 309 307 306 306 306 304 306 305 305 305 305 305 305 303 304 302 301 299 298 299 304 303 304 304 305 305 305 302 304 304 305 305 305
311 313 313 315 316 314 309 313 310 309 307 304 305 304 304 305 304 304 303 304 304 304 303 305 304 304 304 298 298 300 305 305 305 306 305 305 305 299 299 305 305 305 305
312 313 313 314 315 313 315 311 309 308 305 304 305 305 308 306 304 304 303 305 304 303 303 303 305 304 306 298 297 299 305 305 304 306 305 300 300 298 298 305 305 303 304
311 313 313 314 314 315 313 310 309 306 307 306 306 306 307 309 308 308 308 307 305 303 302 302 303 304 304 304 298 298 305 303 303 304 304 304 298 297 298 300 304 300 303
312 314 315 314 314 314 312 309 308 308 308 306 306 305 306 308 306 308 307 307 305 303 302 302 302 303 304 300 299 298 298 301 304 303 304 304 297 297 297 301 298 299 302
315 315 314 312 313 313 313 310 308 309 307 305 305 305 306 307 309 308 306 305 304 303 301 301 301 303 306 307 301 299 298 300 305 304 301 298 298 298 299 299 299 300 302
315 315 313 310 310 313 313 311 311 309 307 305 305 306 307 308 309 307 308 306 304 302 301 300 300 301 302 304 307 307 308 303 304 303 304 302 300 300 302 303 304 303 302
315 314 311 310 311 314 314 313 311 309 306 306 305 306 306 307 307 308 307 306 306 300 302 301 302 301 300 302 297 300 306 305 301 303 303 302 302 301 301 301 301 303 302
315 312 311 312 313 314 314 313 314 309 306 305 305 305 305 306 305 306 307 297 298 296 294 293 298 307 297 294 294 295 295 295 296 306 304 301 300 298 299 300 301 301 302
Wind_Speed
11 9 9 9 9 11 12 12 12 12 11 9 10 11 11 11 10 8 9 12 11 12 12 10 9 8 6 9 13 9 9 11 11 9 13 12 13 15 14 10 9 13 10
8 7 7 6 7 9 9 10 11 9 10 10 8 9 10 11 11 10 11 9 11 13 12 11 10 8 9 8 7 9 10 9 9 7 10 9 10 9 12 12 11 14 11
7 6 4 5 7 5 7 8 8 10 8 10 9 9 9 11 11 12 12 14 16 14 12 14 12 8 6 8 9 7 9 6 7 10 6 4 6 5 3 9 8 13 8
4 3 4 4 3 4 7 4 7 9 10 11 10 12 11 13 10 12 13 14 15 13 14 12 13 13 6 9 9 8 7 6 8 6 8 12 8 6 3 1 4 6 4
2 6 4 4 5 5 6 6 5 8 9 12 12 12 13 12 12 13 15 14 14 16 16 20 18 14 11 12 11 10 9 9 7 7 6 7 6 8 9 9 4 2 2
7 1 2 7 11 12 11 9 7 9 7 11 13 14 16 17 15 16 15 15 15 14 16 18 17 16 15 14 11 11 11 9 9 6 7 8 7 2 5 8 6 7 3
9 7 11 14 12 11 10 12 13 13 14 16 14 14 18 16 17 18 15 17 14 13 16 19 19 15 14 13 10 8 9 9 6 6 6 5 6 7 8 8 5 3 3
6 14 15 10 13 11 15 14 14 14 17 13 14 15 18 11 11 12 12 11 11 12 15 14 15 15 14 13 9 7 8 10 9 11 9 7 6 6 4 1 1 5 6
10 10 11 11 10 17 18 15 19 23 13 16 14 17 12 12 12 12 10 10 10 11 14 15 14 13 13 13 12 9 10 9 9 9 10 8 8 8 8 7 5 3 6
8 12 11 15 16 17 15 22 21 9 20 20 17 15 15 14 14 12 12 14 12 13 14 15 16 12 13 14 12 10 10 10 7 6 10 9 7 9 8 8 8 6 3
14 13 15 16 17 23 22 15 9 19 18 17 15 13 14 14 15 13 12 14 12 10 13 13 14 14 15 14 12 11 10 12 11 9 9 9 9 7 7 8 9 9 10
14 16 17 22 19 17 8 15 17 15 15 14 13 14 13 14 12 13 13 13 13 13 14 12 13 13 13 13 13 12 12 14 11 10 10 10 7 9 10 7 8 10 9
15 15 17 15 12 14 15 14 13 13 13 10 11 11 10 10 11 13 12 12 13 12 14 13 13 13 13 13 12 11 11 10 10 10 9 10 11 10 7 8 7 7 5
15 17 16 15 13 14 12 14 11 13 11 11 11 10 11 12 13 11 11 13 13 12 11 11 12 11 12 12 11 9 7 7 7 7 8 9 9 7 6 6 7 3 2
18 14 10 9 15 14 13 13 12 9 12 11 13 11 13 12 13 13 12 12 11 10 10 10 11 13 11 10 12 10 6 5 5 8 9 10 12 15 13 5 6 6 7
14 17 12 12 16 14 13 10 9 9 11 14 15 14 11 14 12 10 12 9 10 11 10 12 12 12 10 16 18 15 9 10 9 9 10 9 10 11 13 15 15 13 9
14 13 14 13 12 11 11 8 6 9 10 14 13 10 9 11 12 12 13 11 11 10 11 11 12 12 12 17 18 21 9 8 9 11 10 9 9 12 9 5 4 8 9
12 10 10 12 12 12 9 5 7 10 12 13 13 11 13 12 14 12 13 13 10 12 9 11 12 13 12 16 17 21 8 7 9 11 10 11 11 12 12 8 7 9 8
8 9 8 12 11 10 5 6 10 13 14 13 12 11 11 12 13 14 14 13 12 12 10 9 12 12 13 17 19 15 8 8 9 10 13 12 11 14 15 7 6 7 7
6 9 15 11 10 6 5 9 12 13 13 10 10 9 10 12 11 11 11 11 8 9 9 11 11 12 13 19 21 18 7 11 8 9 10 15 12 12 14 10 8 9 9
7 12 8 7 7 7 6 11 12 11 11 10 9 9 10 10 13 12 9 8 7 6 9 9 9 12 13 13 16 17 10 7 6 8 7 9 11 9 9 11 10 7 5
6 8 9 7 7 7 7 10 10 9 9 8 8 7 7 8 7 11 9 10 9 11 11 10 8 9 9 10 9 9 9 13 8 7 6 7 6 8 9 8 7 9 6
8 7 6 9 8 8 8 10 7 7 8 6 6 6 7 8 9 9 11 11 11 9 8 8 8 10 10 9 6 5 7 9 7 7 8 11 10 3 3 9 6 5 5
7 6 7 8 6 7 8 7 8 5 7 5 4 5 6 5 9 6 7 10 10 7 8 7 8 7 8 10 11 11 11 7 9 9 8 6 1 9 9 6 6 5 6
6 7 8 3 7 7 7 6 6 5 6 5 3 4 4 6 6 7 9 8 8 5 7 6 6 6 7 7 7 7 7 5 5 5 7 8 8 8 6 6 8 6 5
8 7 6 6 7 8 7 5 6 6 5 4 4 5 4 5 5 4 4 5 4 2 2 1 6 5 3 8 9 9 11 10 7 7 8 6 5 6 6 6 4 6 6
Wind_Direction
104 93 79 61 55 50 41 27 26 15 357 9 360 356 348 342 341 324 339 331 303 327 315 299 301 293 288 293 295 261 254 251 253 261 260 265 254 234 242 227 223 243 250
112 92 82 71 53 43 38 29 17 15 8 357 6 357 335 334 327 339 324 302 347 318 312 315 300 291 290 280 269 273 272 266 253 244 252 262 256 253 229 230 233 246 240
128 105 83 44 16 29 31 28 11 352 17 1 5 357 342 343 347 334 336 357 328 310 302 313 303 281 275 281 288 281 271 287 290 271 254 268 242 275 225 245 246 252 241
148 133 84 66 353 4 103 25 15 5 9 4 351 347 352 345 334 334 341 329 306 328 327 300 314 317 306 271 278 266 262 261 265 286 245 240 261 272 276 219 250 244 269
99 65 11 33 20 22 57 106 25 4 5 0 3 349 354 342 329 335 330 315 345 325 6 357 343 332 319 314 293 291 293 289 279 288 290 263 257 245 252 265 177 139 152
70 133 348 61 19 10 6 4 9 350 26 2 359 358 2 341 340 348 337 346 334 342 343 350 327 322 320 314 311 312 305 303 301 302 291 281 282 238 236 236 216 158 101
43 25 25 20 15 358 353 348 7 356 22 9 6 3 1 350 357 354 354 343 346 350 352 336 329 314 311 314 323 324 316 322 326 318 308 288 296 269 234 226 235 144 109
27 28 18 358 344 0 360 354 6 5 17 10 7 13 9 20 12 10 2 2 351 345 341 338 332 330 336 332 343 2 4 25 23 18 8 19 11 4 334 350 70 60 56
27 15 2 340 353 4 356 2 22 21 7 358 3 12 22 24 11 17 360 7 349 348 343 346 344 349 355 352 9 27 20 40 38 28 19 24 14 16 9 11 70 1 147
352 3 348 5 5 359 6 32 9 356 7 5 9 6 11 15 8 8 2 10 8 358 352 352 349 4 19 12 18 26 36 47 45 46 48 33 21 33 15 27 22 45 32
353 355 354 3 16 31 5 26 354 9 3 15 1 10 7 8 7 3 3 354 8 3 359 0 358 3 19 23 26 36 47 57 52 45 43 38 26 41 17 25 35 11 48
341 354 7 37 21 4 349 21 20 3 13 4 8 19 16 13 2 347 5 357 357 21 20 11 9 12 19 26 23 32 27 24 25 30 26 38 41 51 39 19 36 31 11
2 5 35 31 31 345 24 13 20 11 9 355 21 29 15 5 358 360 358 2 20 23 14 17 25 20 20 23 27 25 27 26 23 26 29 28 29 41 39 40 47 58 65
356 31 34 15 3 8 17 12 19 23 330 24 29 29 13 3 6 358 11 25 18 20 14 7 20 30 30 25 18 18 20 24 25 11 24 53 47 47 38 43 46 29 134
22 29 5 13 355 6 13 26 32 359 355 21 21 22 10 10 0 18 29 25 17 10 16 17 19 5 26 17 357 348 330 348 45 49 47 43 47 48 43 26 31 9 46
13 8 3 347 5 19 30 37 13 345 340 16 28 24 11 8 359 24 23 18 17 4 17 25 20 14 25 359 355 358 20 16 23 32 60 52 53 60 47 40 47 43 36
353 350 359 3 14 26 31 39 348 336 19 37 35 25 10 359 29 16 19 23 17 8 28 22 13 28 32 2 357 350 39 31 34 35 34 51 43 16 19 60 37 57 40
4 9 5 10 20 50 54 4 355 24 20 42 28 19 18 15 24 18 22 18 12 8 23 19 25 36 43 4 353 335 62 64 63 41 32 38 37 18 356 360 40 38 45
11 4 6 37 49 52 49 8 37 31 23 45 32 22 24 25 23 18 10 8 6 12 11 19 21 23 40 12 3 357 40 62 54 60 39 19 23 5 355 351 52 59 62
37 2 54 46 68 66 37 42 38 30 31 44 47 23 31 36 26 18 12 12 8 9 9 14 11 25 25 25 12 5 29 22 31 42 35 42 20 8 3 358 18 55 29
55 81 53 50 74 55 56 47 38 32 41 34 49 26 21 27 25 20 15 12 10 26 18 16 18 19 29 31 15 10 27 18 32 34 31 34 15 10 11 20 37 40 345
71 54 55 60 56 66 56 54 44 29 61 45 30 34 26 27 31 26 23 30 25 20 22 19 17 24 22 25 10 11 18 359 31 22 34 44 9 9 23 39 38 29 10
67 71 88 80 72 59 47 58 54 30 64 51 31 23 33 23 32 42 41 33 25 20 14 16 13 15 20 22 356 2 21 31 16 13 348 327 356 189 32 32 33 73 50
52 67 77 72 71 62 62 61 59 31 40 59 8 28 44 22 35 45 32 44 25 25 19 15 16 11 12 13 13 23 27 24 33 26 23 16 147 31 24 49 43 55 44
88 75 79 84 83 63 51 57 51 52 24 37 2 14 49 26 52 43 34 40 50 25 24 17 21 7 15 8 330 357 19 22 5 39 37 30 16 22 21 25 22 29 39
79 60 75 36 58 57 74 60 47 71 24 340 33 50 9 20 54 24 75 93 69 70 149 207 10 74 52 320 324 324 326 333 17 57 56 44 31 22 7 2 18 23 44